Location: Borbetomagus
(49.6328°N, 8.3592°E)
Time: 20:11:31
(UTC+00:00)

Cosmos 1833 Rocket - Pass Details

Date: 19 May 2025
Orbit: 831 x 838 km, 71.0° (Epoch: 20 June)

Event Time Altitude Azimuth Distance (km) Brightness Sun altitude
Rises 20:22:08 0° 196° (SSW) 3,376 5.5 -9.7°
Reaches altitude 10° 20:24:35 10° 193° (SSW) 2,447 4.8 -10.0°
Maximum altitude 20:30:07 64° 113° (ESE) 931 2.7 -10.6°
Drops below altitude 10° 20:35:42 10° 34° (NNE) 2,464 5.3 -11.1°
Sets 20:38:10 0° 31° (NNE) 3,402 6.1 -11.4°
